SCP
0 0 0 0 0 0 0 0 0 0 0 0 0 0 0 0 0 0 0 0 0 0 0 0 0 0 0 0 1 0 0 0 0 0 0 0 0 0 0 0 -0 -0 0
0 0 0 0 0 0 0 0 0 0 0 0 0 0 0 0 0 0 0 0 0 0 0 0 0 0 0 0 0 0 0 0 0 0 0 0 0 0 0 0 0 0 0
0 0 0 0 0 0 0 0 0 0 0 0 0 0 0 0 0 0 0 0 0 0 0 0 0 0 0 0 0 0 0 0 0 0 0 0 0 0 0 0 -0 -0 -0
0 1 0 0 0 0 0 0 0 0 0 0 0 0 0 0 0 0 0 0 0 0 0 0 0 0 0 0 0 0 0 0 0 0 0 0 0 0 0 0 0 0 0
0 0 0 0 0 0 0 0 0 0 0 0 0 0 0 0 0 0 0 0 0 0 0 0 0 0 0 0 0 0 0 0 0 0 0 0 0 0 0 0 0 0 0
0 0 0 0 0 0 0 0 0 0 0 0 0 0 0 0 0 0 0 0 0 0 0 0 0 0 0 0 0 0 0 0 0 0 0 0 0 0 0 0 0 0 0
0 0 0 0 0 0 0 0 0 0 0 0 0 0 0 0 0 0 0 0 0 0 0 0 0 0 0 0 0 0 0 0 0 0 0 0 0 0 0 0 -0 -0 -0
0 0 0 0 0 0 0 0 0 0 0 0 0 0 0 0 0 0 0 0 0 0 0 0 0 0 0 0 0 0 0 0 -0 -0 -0 0 0 0 0 -0 -0 -0 -0
0 0 0 0 0 0 0 0 0 0 0 0 0 0 0 0 0 0 0 0 0 0 0 0 0 0 0 0 0 0 0 0 -0 -0 0 0 0 -0 -0 -0 -0 -0 -0
0 0 0 0 0 0 0 0 0 0 0 0 0 -0 0 0 0 0 0 0 0 0 0 0 0 0 0 0 0 0 0 0 -0 -0 -0 -0 -0 -0 -0 -0 -0 -0 -0
0 0 0 0 0 0 0 0 0 0 0 0 0 -0 -0 -0 0 0 0 0 0 0 0 0 0 0 0 0 0 0 0 0 -0 0 0 -0 -0 -0 -0 -0 -0 0 0
0 0 0 0 0 0 0 0 -0 -0 -0 -0 -0 -0 -0 -0 0 0 0 0 0 0 0 0 0 0 0 0 0 0 0 0 0 0 0 -0 -0 -0 -0 -0 -0 0 -0
0 0 0 0 0 0 0 -0 -0 0 0 -0 -0 -0 -0 -0 0 0 0 0 0 0 0 0 0 0 0 0 0 0 0 0 0 0 0 -0 -0 -0 -0 -0 -0 -0 0
0 0 0 0 -0 0 0 0 -0 0 0 0 0 0 -0 -0 0 0 0 0 0 0 0 0 0 0 0 0 0 0 0 0 0 0 -0 -0 -0 -0 -0 -0 0 0 -0
0 0 0 -0 -0 0 0 0 0 0 0 0 0 -0 0 0 -0 -0 0 0 0 0 0 0 0 0 0 0 0 0 0 0 0 0 -0 -0 0 0 0 0 0 0 -0
0 0 -0 -0 -0 -0 0 -0 0 0 0 0 0 -0 0 0 0 0 -0 0 0 0 0 0 0 0 0 0 0 0 0 0 0 -0 0 -0 0 0 0 0 0 0 0
0 0 -0 -0 -0 -0 -0 0 0 0 0 -0 0 -0 -0 -0 -0 -0 -0 -0 0 0 0 0 0 0 0 -0 0 0 0 0 0 -0 -0 0 0 0 0 0 0 0 0
0 -0 -0 -0 -0 -0 -0 -0 -0 0 0 0 0 0 -0 -0 -0 0 -0 -0 0 0 0 0 0 0 0 0 0 0 0 0 0 0 -0 0 0 0 0 0 0 0 0
-0 -0 0 0 0 -0 -0 0 0 0 0 0 0 0 0 -0 -0 -0 -0 0 0 0 0 0 0 0 0 0 0 0 0 0 0 0 0 0 0 0 0 0 0 0 0
-0 -0 -0 0 0 -0 -0 -0 -0 -0 -0 0 0 0 0 -0 0 0 0 0 0 0 0 0 0 0 0 0 0 0 0 0 0 0 0 0 0 0 0 0 0 0 0
-0 -0 0 0 0 0 0 0 0 0 0 -0 -0 0 0 0 -0 -0 -0 0 0 0 0 0 0 0 0 0 0 0 0 0 0 0 0 0 0 0 0 0 0 0 -0
-0 -0 0 0 0 0 0 -0 -0 -0 -0 -0 0 0 0 0 -0 -0 -0 -0 0 0 0 0 0 0 0 0 0 0 0 0 0 0 0 0 0 0 0 0 -0 -0 -0
-0 -0 0 0 0 0 0 0 -0 0 0 0 0 0 0 0 0 0 0 0 0 0 0 0 0 0 0 0 0 0 0 0 0 0 0 0 0 0 0 0 -0 -0 -0
0 -0 -0 -0 -0 0 0 0 0 -0 -0 -0 -0 -0 0 0 0 0 0 0 0 0 0 0 0 0 0 0 0 0 0 0 0 0 0 0 0 -0 0 0 -0 -0 0
0 0 -0 -0 -0 0 0 0 0 0 -0 -0 -0 -0 -0 -0 0 -0 -0 0 0 0 0 0 0 0 0 0 0 0 0 0 0 0 0 -0 0 0 -0 0 0 0 0
0 -0 -0 -0 -0 0 0 0 0 0 0 -0 -0 0 -0 -0 -0 -0 0 0 0 0 0 0 0 0 0 0 0 0 0 0 -0 0 0 0 -0 0 -0 -0 0 0 0
Wind_Speed_500mb
55 45 35 33 38 36 34 34 34 32 31 31 29 27 20 16 19 22 24 28 33 36 41 38 32 27 28 31 42 37 36 38 35 36 42 45 43 40 37 38 29 35 39
46 37 31 33 41 37 36 35 35 37 38 38 33 33 31 28 30 31 33 32 37 43 45 35 32 27 25 30 45 40 37 41 40 40 42 42 42 35 40 34 33 33 31
36 32 30 33 34 37 38 38 40 41 44 42 42 40 37 35 37 40 33 36 29 26 43 38 35 34 27 30 43 45 40 44 44 44 47 47 34 28 34 29 33 33 32
35 32 35 28 32 40 43 45 44 43 44 50 51 47 49 48 44 39 41 37 34 31 30 30 25 27 30 33 42 47 44 42 44 45 46 43 34 27 31 34 32 37 42
29 36 30 29 33 32 40 44 43 44 42 42 44 40 40 47 46 46 44 44 36 35 29 26 21 18 27 35 37 47 47 45 50 48 44 42 33 31 31 35 36 43 36
34 30 29 34 32 30 36 40 39 38 38 36 36 38 38 39 41 42 44 44 46 39 37 30 24 20 22 34 39 44 50 47 42 40 44 41 34 35 36 36 43 45 35
29 30 30 34 37 39 34 35 36 36 34 33 32 35 35 36 37 37 37 39 39 39 42 41 33 25 24 32 39 44 51 47 50 46 49 43 39 37 38 45 51 42 37
32 31 32 33 40 38 33 30 28 26 27 28 28 26 16 27 35 35 35 40 40 38 42 40 41 38 30 33 41 46 51 53 53 53 51 48 44 40 46 52 48 44 43
32 32 35 36 34 31 30 23 20 19 22 24 28 18 10 14 9 25 31 34 37 42 39 39 36 40 38 34 38 48 52 57 60 53 52 49 45 46 52 53 48 43 37
38 34 34 30 24 25 20 16 18 20 24 25 28 33 26 5 2 6 21 26 33 37 41 39 36 40 42 40 36 50 54 58 63 61 63 57 47 52 62 56 45 41 44
35 32 30 28 25 21 16 19 20 20 23 25 29 26 36 21 12 11 6 32 34 30 40 40 41 33 41 42 42 53 54 58 64 68 68 56 56 63 60 52 49 48 37
27 30 28 26 23 18 16 16 15 12 13 14 17 18 26 31 24 29 22 18 34 31 30 37 41 37 37 41 43 49 52 55 65 72 74 59 58 67 64 53 53 46 33
28 28 27 24 22 15 14 13 12 12 11 14 16 21 24 23 12 20 27 17 28 24 25 29 32 34 35 41 44 47 52 53 56 58 56 60 69 71 56 51 52 41 25
20 19 19 22 19 14 13 14 12 9 10 10 19 25 29 20 16 16 20 23 31 26 23 24 20 24 34 40 41 44 55 56 58 57 72 73 73 59 58 54 48 32 22
14 13 15 16 16 14 14 13 8 10 11 14 17 21 19 23 21 22 18 28 37 33 26 28 12 24 23 32 39 48 56 73 61 66 80 78 64 60 60 57 40 27 23
10 10 13 15 17 19 15 9 11 9 8 11 16 21 24 21 22 22 21 33 36 40 26 41 18 38 28 34 36 43 56 69 68 74 82 81 71 61 57 48 31 24 23
12 10 12 15 20 17 11 6 9 7 5 8 12 18 22 23 23 18 18 37 36 41 30 34 37 38 27 28 38 32 58 72 67 71 75 62 62 58 48 48 31 23 22
14 17 20 18 13 11 4 6 9 6 8 7 11 6 13 28 26 26 23 36 36 38 38 46 37 39 33 31 54 53 59 67 78 74 61 63 64 43 40 42 31 22 17
22 21 21 16 15 12 10 8 7 6 7 9 12 11 12 18 25 27 25 34 36 40 39 45 47 44 57 68 61 57 69 75 71 64 59 55 42 39 43 39 29 28 25
25 20 18 13 12 10 9 8 8 8 12 16 15 14 17 19 24 27 26 29 34 41 42 57 51 45 72 70 60 86 91 75 72 67 59 40 38 39 42 35 28 21 18
26 22 20 17 16 12 11 8 10 10 13 11 12 16 17 21 22 23 22 23 33 45 56 63 59 66 70 79 90 94 75 75 73 62 53 46 36 41 41 35 26 19 18
28 26 26 18 14 10 8 6 10 14 13 10 12 17 18 18 21 24 23 24 25 45 57 70 68 73 82 91 88 78 86 87 76 58 45 49 42 41 34 30 23 21 20
27 27 24 18 17 16 11 9 13 11 13 13 16 14 13 14 17 15 19 15 24 47 58 68 75 78 89 82 83 87 81 74 65 56 50 47 43 37 33 28 23 21 19
26 26 22 20 20 17 16 16 19 15 13 12 13 7 11 18 16 17 21 22 28 38 46 60 64 74 72 83 83 81 75 61 50 55 43 45 42 34 28 23 22 21 21
27 25 23 20 18 22 20 14 21 21 16 12 11 11 9 15 19 21 33 36 32 47 48 45 65 70 77 84 71 67 65 50 50 49 45 31 36 29 24 21 20 22 25
24 26 25 21 20 25 20 21 20 22 18 15 16 16 14 11 18 25 43 47 46 41 45 55 59 71 76 61 56 54 44 39 44 45 42 26 31 25 16 21 20 22 23
Wind_Direction_500mb
246 247 246 259 266 260 258 270 282 265 260 258 258 245 240 247 232 238 237 226 237 242 236 235 242 231 239 239 217 211 207 204 212 219 207 211 217 222 219 208 205 202 198
237 231 245 255 256 261 263 266 274 270 264 259 258 249 246 242 255 254 248 241 251 250 229 234 240 232 234 233 214 211 209 207 212 213 210 211 218 229 218 214 195 185 190
221 240 246 256 266 259 256 262 267 265 264 257 252 252 246 242 248 249 247 244 252 244 225 235 241 239 235 224 216 213 212 210 207 210 212 213 223 221 224 206 186 181 191
222 237 242 261 270 255 256 261 266 263 264 258 254 251 245 248 249 249 249 250 244 237 229 228 236 240 230 218 215 214 212 210 210 209 211 216 222 211 200 193 182 182 171
222 243 257 266 264 263 261 266 269 270 265 256 254 251 247 250 246 249 249 248 246 230 224 226 230 246 226 214 211 214 210 211 212 207 210 212 212 201 192 186 183 178 170
236 243 261 273 274 280 269 275 271 267 266 257 255 251 249 246 247 249 246 246 242 234 229 224 230 246 231 215 210 213 208 207 217 205 204 204 200 200 194 198 188 175 172
228 249 266 276 271 282 281 277 270 264 257 255 244 249 251 250 248 241 241 238 232 226 222 227 230 234 241 226 215 211 209 200 209 208 202 194 196 199 195 188 177 170 178
249 258 268 279 276 274 275 274 273 262 252 235 239 237 254 255 249 243 240 234 226 219 217 220 226 234 241 236 220 210 209 198 207 210 200 193 194 195 191 187 174 177 173
246 258 266 268 271 268 273 271 268 263 254 240 229 220 219 238 259 231 233 226 216 216 216 218 225 222 235 230 220 213 208 204 205 209 197 190 194 190 187 181 178 177 166
241 250 266 275 277 273 266 259 248 248 244 238 229 226 225 176 330 221 220 212 209 213 218 223 225 225 225 227 235 216 209 209 204 203 199 190 191 186 183 180 179 174 165
240 260 268 270 265 259 260 262 252 251 246 238 237 239 221 219 233 252 214 219 216 220 223 230 230 236 229 230 224 214 210 208 205 203 194 188 186 188 183 179 173 169 179
253 268 269 257 244 249 259 258 240 229 210 218 228 223 213 220 249 233 240 247 221 217 218 221 222 233 233 230 216 212 206 206 206 211 186 181 189 183 180 171 167 172 168
271 268 246 233 229 245 253 234 216 205 224 230 234 218 216 237 261 225 237 235 191 191 199 212 219 225 224 215 210 209 205 202 202 170 200 186 189 188 175 170 165 164 176
259 249 233 214 221 231 225 208 200 232 225 222 214 216 222 234 236 233 231 217 173 179 187 198 211 214 211 212 212 212 201 198 202 182 184 185 183 172 170 170 167 158 175
239 230 203 203 210 206 193 184 206 209 232 229 222 215 213 229 237 220 205 198 189 169 178 176 187 188 187 197 195 198 196 191 197 187 180 185 170 168 177 174 163 167 164
207 200 196 198 192 182 175 179 188 212 238 233 211 218 219 218 208 217 213 194 195 185 162 177 193 169 172 178 191 187 191 183 184 181 179 173 167 167 165 159 154 170 167
183 168 173 172 172 174 164 177 214 227 223 210 223 227 222 211 214 200 202 185 186 193 189 167 164 161 149 163 176 156 159 172 176 178 169 166 160 165 165 153 161 179 170
166 146 135 143 151 163 185 216 214 204 222 250 202 210 211 211 205 205 205 188 192 194 185 158 160 162 161 156 161 152 154 168 174 174 162 157 160 157 161 154 155 175 171
158 149 155 163 173 170 207 227 219 190 159 153 152 141 160 171 186 192 183 178 186 188 202 170 158 163 161 160 154 159 163 158 148 148 160 152 153 163 157 158 165 188 192
169 158 148 155 178 184 210 199 177 157 161 162 142 126 127 131 132 155 163 175 179 181 178 166 160 158 161 159 164 159 142 140 150 162 157 161 164 160 161 167 186 191 207
176 165 156 159 172 194 179 174 174 154 142 161 158 146 134 148 146 162 163 170 182 179 173 165 163 167 164 159 154 150 145 151 155 150 156 152 170 164 169 183 196 206 219
176 175 171 174 171 189 199 195 186 173 169 178 160 156 178 188 191 189 207 203 203 188 176 166 168 170 161 157 162 160 155 156 148 165 169 172 174 176 183 191 208 213 227
178 181 178 191 193 206 216 192 167 165 180 177 160 158 178 164 180 186 161 170 201 192 191 182 174 177 173 176 166 159 158 163 162 167 179 171 173 180 190 202 211 221 229
183 177 189 203 209 219 192 186 161 159 160 151 142 130 140 144 144 151 143 151 173 178 184 184 184 182 185 167 162 160 164 166 169 164 180 170 174 184 196 206 215 222 227
187 188 192 204 202 195 186 198 165 164 167 162 159 134 130 142 140 153 147 140 156 164 174 178 183 177 171 158 163 162 167 172 163 168 171 187 182 188 194 207 224 231 231
193 190 189 199 199 193 178 166 172 176 180 183 176 174 172 156 134 153 150 142 138 156 165 158 161 159 155 161 172 176 172 173 166 169 177 182 187 190 208 231 234 236 240
Wind_Speed_850mb
55 45 35 33 38 36 34 34 34 32 31 31 29 27 20 16 19 22 24 28 33 36 41 38 32 27 28 31 42 37 36 38 35 36 42 45 43 40 37 38 29 35 39
46 37 31 33 41 37 36 35 35 37 38 38 33 33 31 28 30 31 33 32 37 43 45 35 32 27 25 30 45 40 37 41 40 40 42 42 42 35 40 34 33 33 31
36 32 30 33 34 37 38 38 40 41 44 42 42 40 37 35 37 40 33 36 29 26 43 38 35 34 27 30 43 45 40 44 44 44 47 47 34 28 34 29 33 33 32
35 32 35 28 32 40 43 45 44 43 44 50 51 47 49 48 44 39 41 37 34 31 30 30 25 27 30 33 42 47 44 42 44 45 46 43 34 27 31 34 32 37 42
29 36 30 29 33 32 40 44 43 44 42 42 44 40 40 47 46 46 44 44 36 35 29 26 21 18 27 35 37 47 47 45 50 48 44 42 33 31 31 35 36 43 36
34 30 29 34 32 30 36 40 39 38 38 36 36 38 38 39 41 42 44 44 46 39 37 30 24 20 22 34 39 44 50 47 42 40 44 41 34 35 36 36 43 45 35
29 30 30 34 37 39 34 35 36 36 34 33 32 35 35 36 37 37 37 39 39 39 42 41 33 25 24 32 39 44 51 47 50 46 49 43 39 37 38 45 51 42 37
32 31 32 33 40 38 33 30 28 26 27 28 28 26 16 27 35 35 35 40 40 38 42 40 41 38 30 33 41 46 51 53 53 53 51 48 44 40 46 52 48 44 43
32 32 35 36 34 31 30 23 20 19 22 24 28 18 10 14 9 25 31 34 37 42 39 39 36 40 38 34 38 48 52 57 60 53 52 49 45 46 52 53 48 43 37
38 34 34 30 24 25 20 16 18 20 24 25 28 33 26 5 2 6 21 26 33 37 41 39 36 40 42 40 36 50 54 58 63 61 63 57 47 52 62 56 45 41 44
35 32 30 28 25 21 16 19 20 20 23 25 29 26 36 21 12 11 6 32 34 30 40 40 41 33 41 42 42 53 54 58 64 68 68 56 56 63 60 52 49 48 37
27 30 28 26 23 18 16 16 15 12 13 14 17 18 26 31 24 29 22 18 34 31 30 37 41 37 37 41 43 49 52 55 65 72 74 59 58 67 64 53 53 46 33
28 28 27 24 22 15 14 13 12 12 11 14 16 21 24 23 12 20 27 17 28 24 25 29 32 34 35 41 44 47 52 53 56 58 56 60 69 71 56 51 52 41 25
20 19 19 22 19 14 13 14 12 9 10 10 19 25 29 20 16 16 20 23 31 26 23 24 20 24 34 40 41 44 55 56 58 57 72 73 73 59 58 54 48 32 22
14 13 15 16 16 14 14 13 8 10 11 14 17 21 19 23 21 22 18 28 37 33 26 28 12 24 23 32 39 48 56 73 61 66 80 78 64 60 60 57 40 27 23
10 10 13 15 17 19 15 9 11 9 8 11 16 21 24 21 22 22 21 33 36 40 26 41 18 38 28 34 36 43 56 69 68 74 82 81 71 61 57 48 31 24 23
12 10 12 15 20 17 11 6 9 7 5 8 12 18 22 23 23 18 18 37 36 41 30 34 37 38 27 28 38 32 58 72 67 71 75 62 62 58 48 48 31 23 22
14 17 20 18 13 11 4 6 9 6 8 7 11 6 13 28 26 26 23 36 36 38 38 46 37 39 33 31 54 53 59 67 78 74 61 63 64 43 40 42 31 22 17
22 21 21 16 15 12 10 8 7 6 7 9 12 11 12 18 25 27 25 34 36 40 39 45 47 44 57 68 61 57 69 75 71 64 59 55 42 39 43 39 29 28 25
25 20 18 13 12 10 9 8 8 8 12 16 15 14 17 19 24 27 26 29 34 41 42 57 51 45 72 70 60 86 91 75 72 67 59 40 38 39 42 35 28 21 18
26 22 20 17 16 12 11 8 10 10 13 11 12 16 17 21 22 23 22 23 33 45 56 63 59 66 70 79 90 94 75 75 73 62 53 46 36 41 41 35 26 19 18
28 26 26 18 14 10 8 6 10 14 13 10 12 17 18 18 21 24 23 24 25 45 57 70 68 73 82 91 88 78 86 87 76 58 45 49 42 41 34 30 23 21 20
27 27 24 18 17 16 11 9 13 11 13 13 16 14 13 14 17 15 19 15 24 47 58 68 75 78 89 82 83 87 81 74 65 56 50 47 43 37 33 28 23 21 19
26 26 22 20 20 17 16 16 19 15 13 12 13 7 11 18 16 17 21 22 28 38 46 60 64 74 72 83 83 81 75 61 50 55 43 45 42 34 28 23 22 21 21
27 25 23 20 18 22 20 14 21 21 16 12 11 11 9 15 19 21 33 36 32 47 48 45 65 70 77 84 71 67 65 50 50 49 45 31 36 29 24 21 20 22 25
24 26 25 21 20 25 20 21 20 22 18 15 16 16 14 11 18 25 43 47 46 41 45 55 59 71 76 61 56 54 44 39 44 45 42 26 31 25 16 21 20 22 23
Wind_Direction_850mb
246 247 246 259 266 260 258 270 282 265 260 258 258 245 240 247 232 238 237 226 237 242 236 235 242 231 239 239 217 211 207 204 212 219 207 211 217 222 219 208 205 202 198
237 231 245 255 256 261 263 266 274 270 264 259 258 249 246 242 255 254 248 241 251 250 229 234 240 232 234 233 214 211 209 207 212 213 210 211 218 229 218 214 195 185 190
221 240 246 256 266 259 256 262 267 265 264 257 252 252 246 242 248 249 247 244 252 244 225 235 241 239 235 224 216 213 212 210 207 210 212 213 223 221 224 206 186 181 191
222 237 242 261 270 255 256 261 266 263 264 258 254 251 245 248 249 249 249 250 244 237 229 228 236 240 230 218 215 214 212 210 210 209 211 216 222 211 200 193 182 182 171
222 243 257 266 264 263 261 266 269 270 265 256 254 251 247 250 246 249 249 248 246 230 224 226 230 246 226 214 211 214 210 211 212 207 210 212 212 201 192 186 183 178 170
236 243 261 273 274 280 269 275 271 267 266 257 255 251 249 246 247 249 246 246 242 234 229 224 230 246 231 215 210 213 208 207 217 205 204 204 200 200 194 198 188 175 172
228 249 266 276 271 282 281 277 270 264 257 255 244 249 251 250 248 241 241 238 232 226 222 227 230 234 241 226 215 211 209 200 209 208 202 194 196 199 195 188 177 170 178
249 258 268 279 276 274 275 274 273 262 252 235 239 237 254 255 249 243 240 234 226 219 217 220 226 234 241 236 220 210 209 198 207 210 200 193 194 195 191 187 174 177 173
246 258 266 268 271 268 273 271 268 263 254 240 229 220 219 238 259 231 233 226 216 216 216 218 225 222 235 230 220 213 208 204 205 209 197 190 194 190 187 181 178 177 166
241 250 266 275 277 273 266 259 248 248 244 238 229 226 225 176 330 221 220 212 209 213 218 223 225 225 225 227 235 216 209 209 204 203 199 190 191 186 183 180 179 174 165
240 260 268 270 265 259 260 262 252 251 246 238 237 239 221 219 233 252 214 219 216 220 223 230 230 236 229 230 224 214 210 208 205 203 194 188 186 188 183 179 173 169 179
253 268 269 257 244 249 259 258 240 229 210 218 228 223 213 220 249 233 240 247 221 217 218 221 222 233 233 230 216 212 206 206 206 211 186 181 189 183 180 171 167 172 168
271 268 246 233 229 245 253 234 216 205 224 230 234 218 216 237 261 225 237 235 191 191 199 212 219 225 224 215 210 209 205 202 202 170 200 186 189 188 175 170 165 164 176
259 249 233 214 221 231 225 208 200 232 225 222 214 216 222 234 236 233 231 217 173 179 187 198 211 214 211 212 212 212 201 198 202 182 184 185 183 172 170 170 167 158 175
239 230 203 203 210 206 193 184 206 209 232 229 222 215 213 229 237 220 205 198 189 169 178 176 187 188 187 197 195 198 196 191 197 187 180 185 170 168 177 174 163 167 164
207 200 196 198 192 182 175 179 188 212 238 233 211 218 219 218 208 217 213 194 195 185 162 177 193 169 172 178 191 187 191 183 184 181 179 173 167 167 165 159 154 170 167
183 168 173 172 172 174 164 177 214 227 223 210 223 227 222 211 214 200 202 185 186 193 189 167 164 161 149 163 176 156 159 172 176 178 169 166 160 165 165 153 161 179 170
166 146 135 143 151 163 185 216 214 204 222 250 202 210 211 211 205 205 205 188 192 194 185 158 160 162 161 156 161 152 154 168 174 174 162 157 160 157 161 154 155 175 171
158 149 155 163 173 170 207 227 219 190 159 153 152 141 160 171 186 192 183 178 186 188 202 170 158 163 161 160 154 159 163 158 148 148 160 152 153 163 157 158 165 188 192
169 158 148 155 178 184 210 199 177 157 161 162 142 126 127 131 132 155 163 175 179 181 178 166 160 158 161 159 164 159 142 140 150 162 157 161 164 160 161 167 186 191 207
176 165 156 159 172 194 179 174 174 154 142 161 158 146 134 148 146 162 163 170 182 179 173 165 163 167 164 159 154 150 145 151 155 150 156 152 170 164 169 183 196 206 219
176 175 171 174 171 189 199 195 186 173 169 178 160 156 178 188 191 189 207 203 203 188 176 166 168 170 161 157 162 160 155 156 148 165 169 172 174 176 183 191 208 213 227
178 181 178 191 193 206 216 192 167 165 180 177 160 158 178 164 180 186 161 170 201 192 191 182 174 177 173 176 166 159 158 163 162 167 179 171 173 180 190 202 211 221 229
183 177 189 203 209 219 192 186 161 159 160 151 142 130 140 144 144 151 143 151 173 178 184 184 184 182 185 167 162 160 164 166 169 164 180 170 174 184 196 206 215 222 227
187 188 192 204 202 195 186 198 165 164 167 162 159 134 130 142 140 153 147 140 156 164 174 178 183 177 171 158 163 162 167 172 163 168 171 187 182 188 194 207 224 231 231
193 190 189 199 199 193 178 166 172 176 180 183 176 174 172 156 134 153 150 142 138 156 165 158 161 159 155 161 172 176 172 173 166 169 177 182 187 190 208 231 234 236 240